Weather in Macae

Brazil     22°22′20″S   41°47′07″W
temp.,
°C
wind,
m/s
gust,
m/s
humid.,
%
clouds,
%
prec.,
mm/h
press.,
hPa
HPBL,
m
19 april, mon
mon1900:00+21w119273 0.4 101250
03:00+20w22947 1.0 101137
06:00+20w119384 0.4 101130
09:00+23w128466 1.9 1013212
12:00+27s227033 1.1 1011913
15:00+26ssw337613 3.8 1010756
18:00+21sw369499 5.4 1012193
21:00+20w25954 8.1 1012166
20 april, tue
tue2000:00+19w22940 0.2 101259
03:00+18wnw12930 0.2 101134
06:00+18wnw22920 0.0 101226
09:00+23w23720 0.0 1013379
12:00+29s135017 0.0 10111547
15:00+27sw595712 0.0 1009691
18:00+23sw59670 0.0 1011398
21:00+20wsw35780 0.0 1012186
21 april, wed
wed2100:00+19wnw22790 0.0 101254
03:00+18wnw22820 0.0 101133
06:00+18nw22830 0.0 101130
09:00+25wnw12630 0.0 1013485
12:00+27sw346314 0.7 10121241
15:00+25sw57782 2.7 1011924
18:00+21ssw37855 0.4 1012275
21:00+20wsw23925 0.4 1014123
22 april, thu
thu2200:00+19w22925 0.0 101444
03:00+18wsw23911 0.0 1012100
06:00+18w12923 0.0 101348
09:00+24wsw12701 0.0 1015480
12:00+25ssw457018 1.3 10141081
15:00+24sw56751 3.1 1013901
18:00+20sw37871 0.5 1014263
21:00+19sw36930 0.5 1015171
23 april, fri
fri2300:00+18wsw23920 0.0 101584
03:00+17w22904 0.0 101547
06:00+17w22882 0.0 101642
09:00+23n12650 0.0 1017438
12:00+26ese225852 0.1 10151258
15:00+25se436760 0.4 1013489
18:00+21ssw238739 0.1 1014124
21:00+21w118785 0.3 101670